VOZ2 KLAX-YSSY

Flight info

Callsign VOZ2
Flight time N/A
Altitude 28000
Route ZILLI5 FICKY B577 CANOL/N0514F300 B577 PASSA/N0510F320 B577 TUT B450 DUNAK/N0500F340 B450 TEKEP DCT GOOMA H258 RIKNI N774 MARLN
Aircraft B77W/H-SDE1E2E3FGHIJ2J3J4J5M1RWXY/LB1D1

Departure

Time 2026-05-05 20:32
Airport Los Angeles International Airport (KLAX)

Arrival

Time N/A
Airport Sydney Kingsford Smith International Airport (YSSY)
Time Latitude Longitude Altitude Speed Heading
2026-05-05 19:41 33.94176 -118.41108 130 ft 0 kts 82°
2026-05-05 20:19 33.94174 -118.41133 128 ft 4 kts 91°
2026-05-05 20:19 33.94178 -118.41165 125 ft 4 kts 108°
2026-05-05 20:19 33.94189 -118.41194 125 ft 4 kts 130°
2026-05-05 20:20 33.94209 -118.41213 125 ft 4 kts 166°
2026-05-05 20:20 33.94215 -118.41215 125 ft 0 kts 172°
2026-05-05 20:24 33.94149 -118.41204 127 ft 21 kts 172°
2026-05-05 20:24 33.93986 -118.41178 128 ft 20 kts 172°
2026-05-05 20:25 33.93858 -118.41124 126 ft 19 kts 120°
2026-05-05 20:25 33.93865 -118.40912 127 ft 22 kts 82°
2026-05-05 20:25 33.93835 -118.40720 126 ft 28 kts 126°
2026-05-05 20:25 33.93834 -118.40438 128 ft 40 kts 83°
2026-05-05 20:26 33.93865 -118.40134 127 ft 40 kts 83°
2026-05-05 20:26 33.93892 -118.39869 129 ft 29 kts 83°
2026-05-05 20:26 33.93916 -118.39629 130 ft 29 kts 83°
2026-05-05 20:26 33.93940 -118.39388 126 ft 29 kts 83°
2026-05-05 20:27 33.93964 -118.39147 127 ft 29 kts 83°
2026-05-05 20:27 33.93989 -118.38906 130 ft 29 kts 83°
2026-05-05 20:27 33.94013 -118.38665 125 ft 29 kts 83°
2026-05-05 20:27 33.94038 -118.38424 126 ft 29 kts 83°
2026-05-05 20:28 33.94060 -118.38216 130 ft 20 kts 82°
2026-05-05 20:28 33.94072 -118.38106 130 ft 0 kts 83°
2026-05-05 20:30 33.94074 -118.38089 130 ft 7 kts 83°
2026-05-05 20:30 33.94065 -118.38031 125 ft 7 kts 124°
2026-05-05 20:30 33.94019 -118.38007 127 ft 7 kts 180°
2026-05-05 20:31 33.93985 -118.38047 126 ft 7 kts 249°
2026-05-05 20:31 33.93979 -118.38086 128 ft 0 kts 261°
2026-05-05 20:32 33.93963 -118.38217 127 ft 50 kts 261°
2026-05-05 20:32 33.93887 -118.38949 129 ft 128 kts 263°
2026-05-05 20:32 33.93751 -118.40313 160 ft 195 kts 263°
2026-05-05 20:32 33.93582 -118.42010 886 ft 210 kts 263°
2026-05-05 20:33 33.93414 -118.43744 1969 ft 203 kts 262°
2026-05-05 20:33 33.93248 -118.45413 2575 ft 199 kts 263°
2026-05-05 20:33 33.92868 -118.47037 2603 ft 213 kts 231°
2026-05-05 20:33 33.91741 -118.48323 2548 ft 234 kts 223°
2026-05-05 20:34 33.90520 -118.49735 2749 ft 250 kts 230°
2026-05-05 20:34 33.89382 -118.51369 3210 ft 258 kts 231°
2026-05-05 20:34 33.88229 -118.53062 3808 ft 261 kts 231°
2026-05-05 20:34 33.87063 -118.54753 4425 ft 266 kts 231°
2026-05-05 20:35 33.85854 -118.56468 4858 ft 273 kts 226°
2026-05-05 20:35 33.84374 -118.57960 4998 ft 284 kts 215°
2026-05-05 20:35 33.82718 -118.59262 5012 ft 282 kts 213°
2026-05-05 20:35 33.81063 -118.60547 5119 ft 284 kts 213°
2026-05-05 20:36 33.79420 -118.61869 5797 ft 281 kts 215°
2026-05-05 20:36 33.77816 -118.63186 6534 ft 279 kts 215°
2026-05-05 20:36 33.76210 -118.64516 7072 ft 281 kts 216°
2026-05-05 20:36 33.74528 -118.65773 7415 ft 287 kts 201°
2026-05-05 20:37 33.72595 -118.66201 7746 ft 288 kts 184°
2026-05-05 20:37 33.71235 -118.66336 8033 ft 290 kts 186°
2026-05-05 20:37 33.68541 -118.66727 8623 ft 296 kts 188°
2026-05-05 20:37 33.66525 -118.67044 9351 ft 290 kts 188°
2026-05-05 20:38 33.64507 -118.67363 9803 ft 295 kts 189°
2026-05-05 20:38 33.62464 -118.67685 10251 ft 296 kts 189°
2026-05-05 20:38 33.60407 -118.68009 10617 ft 303 kts 190°
2026-05-05 20:38 33.58286 -118.68342 10918 ft 310 kts 189°
2026-05-05 20:39 33.56134 -118.68678 11392 ft 311 kts 189°
2026-05-05 20:39 33.54003 -118.69010 11849 ft 314 kts 190°
2026-05-05 20:39 33.51818 -118.69350 12312 ft 317 kts 190°
2026-05-05 20:39 33.49622 -118.69692 12820 ft 318 kts 189°
2026-05-05 20:40 33.47415 -118.70036 13255 ft 321 kts 190°
2026-05-05 20:40 33.45188 -118.70383 13721 ft 324 kts 191°
2026-05-05 20:40 33.43022 -118.71052 13964 ft 323 kts 213°
2026-05-05 20:40 33.41265 -118.72728 14078 ft 326 kts 229°
2026-05-05 20:41 33.39667 -118.74748 14195 ft 342 kts 229°
2026-05-05 20:41 33.37968 -118.76853 14303 ft 358 kts 228°
2026-05-05 20:41 33.36193 -118.79033 14534 ft 371 kts 229°
2026-05-05 20:41 33.34368 -118.81265 14911 ft 379 kts 228°
2026-05-05 20:42 33.32512 -118.83530 15396 ft 384 kts 229°
2026-05-05 20:42 33.30657 -118.85791 15954 ft 386 kts 228°
2026-05-05 20:42 33.28768 -118.88093 16542 ft 389 kts 229°
2026-05-05 20:42 33.26860 -118.90415 17088 ft 392 kts 227°
2026-05-05 20:43 33.24938 -118.92753 17656 ft 395 kts 229°
2026-05-05 20:43 33.23000 -118.95110 18194 ft 399 kts 227°
2026-05-05 20:43 33.21047 -118.97481 18676 ft 402 kts 228°
2026-05-05 20:43 33.19091 -118.99857 19121 ft 405 kts 228°
2026-05-05 20:44 33.17093 -119.02284 19554 ft 410 kts 228°
2026-05-05 20:44 33.15081 -119.04725 19991 ft 413 kts 229°
2026-05-05 20:44 33.13056 -119.07181 20439 ft 417 kts 229°
2026-05-05 20:44 33.11013 -119.09658 20895 ft 419 kts 229°
2026-05-05 20:45 33.06913 -119.14618 21766 ft 426 kts 229°
2026-05-05 20:45 33.04820 -119.17148 22185 ft 430 kts 229°
2026-05-05 20:45 33.02708 -119.19699 22611 ft 433 kts 229°
2026-05-05 20:46 33.00578 -119.22271 23017 ft 437 kts 229°
2026-05-05 20:46 32.99161 -119.23980 23300 ft 439 kts 229°
2026-05-05 20:46 32.97008 -119.26574 23718 ft 441 kts 229°
2026-05-05 20:46 32.94849 -119.29174 24125 ft 442 kts 229°
2026-05-05 20:47 32.92679 -119.31787 24511 ft 444 kts 229°
2026-05-05 20:47 32.90499 -119.34411 24879 ft 445 kts 229°
2026-05-05 20:47 32.88316 -119.37036 25235 ft 448 kts 229°
2026-05-05 20:47 32.86119 -119.39676 25578 ft 450 kts 229°
2026-05-05 20:48 32.83911 -119.42327 25938 ft 451 kts 229°
2026-05-05 20:48 32.81697 -119.44983 26281 ft 453 kts 229°
2026-05-05 20:48 32.79475 -119.47646 26622 ft 455 kts 229°
2026-05-05 20:48 32.77272 -119.50284 27033 ft 454 kts 230°
2026-05-05 20:49 32.75045 -119.52947 27518 ft 453 kts 230°
2026-05-05 20:49 32.72818 -119.55610 27788 ft 456 kts 230°
2026-05-05 20:49 32.70570 -119.58300 27958 ft 461 kts 230°
2026-05-05 20:49 32.68304 -119.61009 28235 ft 463 kts 230°
2026-05-05 20:50 32.66031 -119.63721 28582 ft 464 kts 230°
2026-05-05 20:50 32.63751 -119.66439 28907 ft 465 kts 230°
2026-05-05 20:50 32.61465 -119.69163 29200 ft 467 kts 230°
2026-05-05 20:50 32.59172 -119.71893 29468 ft 469 kts 230°
2026-05-05 20:51 32.56865 -119.74638 29721 ft 470 kts 230°
2026-05-05 20:51 32.54550 -119.77393 29972 ft 472 kts 230°
2026-05-05 20:51 32.52223 -119.80160 30216 ft 474 kts 230°
2026-05-05 20:51 32.49894 -119.82928 30377 ft 474 kts 230°
2026-05-05 20:52 32.45212 -119.88490 30551 ft 482 kts 230°
2026-05-05 20:52 32.42849 -119.91291 30872 ft 478 kts 230°
2026-05-05 20:52 32.40509 -119.94057 31354 ft 472 kts 230°
2026-05-05 20:53 32.38190 -119.96799 31610 ft 471 kts 230°
2026-05-05 20:53 32.35866 -119.99551 31684 ft 474 kts 230°
2026-05-05 20:53 32.33532 -120.02313 31846 ft 473 kts 230°
2026-05-05 20:53 32.31206 -120.05062 32037 ft 473 kts 230°
2026-05-05 20:54 32.26539 -120.10571 32089 ft 474 kts 230°
2026-05-05 20:54 32.21899 -120.16035 32096 ft 471 kts 230°
2026-05-05 20:55 32.17254 -120.21500 32097 ft 471 kts 230°
2026-05-05 20:55 32.12616 -120.26949 32100 ft 471 kts 230°
2026-05-05 20:56 32.07964 -120.32408 32104 ft 472 kts 230°
2026-05-05 20:56 32.03343 -120.37911 32099 ft 469 kts 235°
2026-05-05 20:57 32.01538 -120.41054 32077 ft 459 kts 246°
2026-05-05 20:57 32.00054 -120.44372 32098 ft 458 kts 247°
2026-05-05 20:57 31.97131 -120.51020 32104 ft 461 kts 246°
2026-05-05 20:58 31.94104 -120.57698 32109 ft 463 kts 246°
2026-05-05 20:58 31.91003 -120.64378 32108 ft 465 kts 245°
2026-05-05 20:59 31.87902 -120.71008 32104 ft 466 kts 245°
2026-05-05 20:59 31.84771 -120.77696 32106 ft 466 kts 245°
2026-05-05 21:00 31.81645 -120.84365 32108 ft 465 kts 245°
2026-05-05 21:00 31.78518 -120.91028 32110 ft 464 kts 245°
2026-05-05 21:01 31.75393 -120.97675 32083 ft 463 kts 245°
2026-05-05 21:01 31.72277 -121.04293 32096 ft 462 kts 245°
2026-05-05 21:02 31.69164 -121.10893 32113 ft 462 kts 245°
2026-05-05 21:02 31.66064 -121.17453 32114 ft 462 kts 245°
2026-05-05 21:03 31.62938 -121.24056 32104 ft 463 kts 245°
2026-05-05 21:03 31.59807 -121.30661 32083 ft 463 kts 245°
2026-05-05 21:04 31.56675 -121.37255 32100 ft 462 kts 245°
2026-05-05 21:04 31.53244 -121.43651 32114 ft 464 kts 238°
2026-05-05 21:05 31.49324 -121.49671 32116 ft 464 kts 236°
2026-05-05 21:05 31.45391 -121.55644 32113 ft 462 kts 237°
2026-05-05 21:06 31.41522 -121.61657 32122 ft 461 kts 237°
2026-05-05 21:06 31.37715 -121.67646 32123 ft 461 kts 237°
2026-05-05 21:07 31.33866 -121.73707 32117 ft 461 kts 237°
2026-05-05 21:07 31.30053 -121.79698 32118 ft 462 kts 237°
2026-05-05 21:08 31.26215 -121.85713 32124 ft 461 kts 237°
2026-05-05 21:08 31.22368 -121.91734 32124 ft 461 kts 237°
2026-05-05 21:09 31.18532 -121.97727 32125 ft 461 kts 237°
2026-05-05 21:09 31.14697 -122.03709 32115 ft 458 kts 237°
2026-05-05 21:10 31.10898 -122.09623 32093 ft 452 kts 237°
2026-05-05 21:10 31.07161 -122.15434 32114 ft 448 kts 237°
2026-05-05 21:11 31.03427 -122.21235 32150 ft 447 kts 237°
2026-05-05 21:11 31.01557 -122.24138 32294 ft 447 kts 237°
2026-05-05 21:11 30.99688 -122.27035 32529 ft 445 kts 237°
2026-05-05 21:12 30.97850 -122.29881 32783 ft 442 kts 237°
2026-05-05 21:12 30.96007 -122.32734 33014 ft 441 kts 237°
2026-05-05 21:12 30.92297 -122.38473 33097 ft 444 kts 238°
2026-05-05 21:13 30.88567 -122.44234 33130 ft 445 kts 237°
2026-05-05 21:13 30.84840 -122.49979 33130 ft 444 kts 237°
2026-05-05 21:14 30.81116 -122.55711 33127 ft 444 kts 237°
2026-05-05 21:14 30.77415 -122.61402 33125 ft 443 kts 237°
2026-05-05 21:15 30.73700 -122.67102 33127 ft 441 kts 238°
2026-05-05 21:15 30.70008 -122.72761 33125 ft 438 kts 238°
2026-05-05 21:16 30.66337 -122.78381 33115 ft 435 kts 238°
2026-05-05 21:16 30.62686 -122.83964 33132 ft 435 kts 238°
2026-05-05 21:17 30.59009 -122.89581 33100 ft 438 kts 238°
2026-05-05 21:17 30.55328 -122.95193 33126 ft 440 kts 238°
2026-05-05 21:18 30.51605 -123.00860 33129 ft 443 kts 238°
2026-05-05 21:18 30.47902 -123.06501 33119 ft 434 kts 238°
2026-05-05 21:19 30.44268 -123.12037 33132 ft 431 kts 238°
2026-05-05 21:19 30.40636 -123.17575 33114 ft 432 kts 238°
2026-05-05 21:20 30.36988 -123.23124 33134 ft 433 kts 238°
2026-05-05 21:20 30.33351 -123.28649 33106 ft 435 kts 238°
2026-05-05 21:21 30.29680 -123.34213 33123 ft 435 kts 238°
2026-05-05 21:21 30.26007 -123.39773 33128 ft 435 kts 238°
2026-05-05 21:22 30.22334 -123.45326 33130 ft 434 kts 238°
2026-05-05 21:22 30.18660 -123.50874 33129 ft 433 kts 238°
2026-05-05 21:23 30.15011 -123.56375 33133 ft 433 kts 238°
2026-05-05 21:23 30.11344 -123.61896 33133 ft 432 kts 238°
2026-05-05 21:24 30.07682 -123.67403 33133 ft 431 kts 238°
2026-05-05 21:24 30.04041 -123.72871 33131 ft 431 kts 238°
2026-05-05 21:25 30.00386 -123.78352 33132 ft 431 kts 238°
2026-05-05 21:25 29.96720 -123.83843 33137 ft 432 kts 237°
2026-05-05 21:26 29.93051 -123.89330 33134 ft 432 kts 237°
2026-05-05 21:26 29.89375 -123.94821 33134 ft 432 kts 237°
2026-05-05 21:27 29.85702 -124.00299 33135 ft 432 kts 237°
2026-05-05 21:27 29.82024 -124.05776 33138 ft 433 kts 237°
2026-05-05 21:28 29.78358 -124.11229 33142 ft 433 kts 237°
2026-05-05 21:28 29.74661 -124.16721 33138 ft 434 kts 237°
2026-05-05 21:29 29.70954 -124.22220 33126 ft 435 kts 237°
2026-05-05 21:29 29.67245 -124.27715 33138 ft 435 kts 237°
2026-05-05 21:30 29.63518 -124.33229 33141 ft 436 kts 237°
2026-05-05 21:30 29.59816 -124.38699 33138 ft 436 kts 237°
2026-05-05 21:31 29.56085 -124.44204 33142 ft 437 kts 237°
2026-05-05 21:31 29.52346 -124.49713 33125 ft 437 kts 237°
2026-05-05 21:32 29.48601 -124.55224 33101 ft 437 kts 237°
2026-05-05 21:32 29.44877 -124.60696 33135 ft 438 kts 237°
2026-05-05 21:33 29.41733 -124.65310 33147 ft 438 kts 237°
2026-05-05 21:33 29.37363 -124.71716 33147 ft 439 kts 237°
2026-05-05 21:34 29.34233 -124.76298 33129 ft 439 kts 237°
2026-05-05 21:34 29.30461 -124.81811 33143 ft 439 kts 236°
2026-05-05 21:35 29.26682 -124.87330 33148 ft 440 kts 236°
2026-05-05 21:35 29.22901 -124.92843 33148 ft 440 kts 236°
2026-05-05 21:36 29.19135 -124.98327 33147 ft 441 kts 236°
2026-05-05 21:36 29.15336 -125.03851 33146 ft 441 kts 236°
2026-05-05 21:37 29.11538 -125.09366 33151 ft 441 kts 236°
2026-05-05 21:37 29.07737 -125.14879 33150 ft 441 kts 236°
2026-05-05 21:38 29.03940 -125.20377 33102 ft 438 kts 236°
2026-05-05 21:38 29.00203 -125.25780 33015 ft 435 kts 236°
2026-05-05 21:39 28.98303 -125.28527 32868 ft 436 kts 236°
2026-05-05 21:39 28.96421 -125.31246 32708 ft 437 kts 236°
2026-05-05 21:39 28.94534 -125.33972 32568 ft 438 kts 236°
2026-05-05 21:39 28.92669 -125.36662 32447 ft 438 kts 236°
2026-05-05 21:40 28.88874 -125.42130 32290 ft 440 kts 236°
2026-05-05 21:40 28.85041 -125.47649 32171 ft 446 kts 236°
2026-05-05 21:41 28.81181 -125.53194 32142 ft 446 kts 236°
2026-05-05 21:41 28.77325 -125.58725 32154 ft 445 kts 236°
2026-05-05 21:42 28.73474 -125.64244 32152 ft 444 kts 236°
2026-05-05 21:42 28.69648 -125.69719 32156 ft 444 kts 236°
2026-05-05 21:43 28.65790 -125.75236 32156 ft 445 kts 236°
2026-05-05 21:43 28.61932 -125.80742 32154 ft 444 kts 236°
2026-05-05 21:44 28.58075 -125.86242 32153 ft 445 kts 236°
2026-05-05 21:44 28.54207 -125.91750 32156 ft 445 kts 236°
2026-05-05 21:45 28.50328 -125.97265 32158 ft 446 kts 236°
2026-05-05 21:45 28.46470 -126.02744 32158 ft 446 kts 236°
2026-05-05 21:46 28.42584 -126.08255 32159 ft 446 kts 236°
2026-05-05 21:46 28.38700 -126.13756 32158 ft 446 kts 236°
2026-05-05 21:47 28.34837 -126.19221 32157 ft 446 kts 236°
2026-05-05 21:47 28.30950 -126.24712 32160 ft 446 kts 236°
2026-05-05 21:48 28.27059 -126.30203 32160 ft 446 kts 236°
2026-05-05 21:48 28.23170 -126.35684 32161 ft 446 kts 236°
2026-05-05 21:49 28.19275 -126.41164 32167 ft 446 kts 236°
2026-05-05 21:49 28.15371 -126.46652 32165 ft 447 kts 236°
2026-05-05 21:50 28.11491 -126.52098 32148 ft 448 kts 236°
2026-05-05 21:50 28.07573 -126.57591 32158 ft 448 kts 236°
2026-05-05 21:51 28.03639 -126.63099 32155 ft 449 kts 236°
2026-05-05 21:51 27.99700 -126.68607 32164 ft 450 kts 236°
2026-05-05 21:52 27.93811 -126.76827 32148 ft 450 kts 236°
2026-05-05 21:53 27.89861 -126.82333 32158 ft 450 kts 236°
2026-05-05 21:53 27.85909 -126.87834 32165 ft 451 kts 236°
2026-05-05 21:54 27.81953 -126.93335 32163 ft 451 kts 236°
2026-05-05 21:54 27.77986 -126.98842 32162 ft 452 kts 236°
2026-05-05 21:55 27.74043 -127.04310 32155 ft 452 kts 236°
2026-05-05 21:55 27.70062 -127.09822 32166 ft 453 kts 236°
2026-05-05 21:56 27.66076 -127.15336 32165 ft 453 kts 236°
2026-05-05 21:56 27.62083 -127.20852 32167 ft 454 kts 236°
2026-05-05 21:57 27.58107 -127.26337 32158 ft 454 kts 236°
2026-05-05 21:57 27.54107 -127.31848 32168 ft 454 kts 236°
2026-05-05 21:58 27.50087 -127.37380 32167 ft 454 kts 236°
2026-05-05 21:58 27.46101 -127.42859 32166 ft 455 kts 236°
2026-05-05 21:59 27.42088 -127.48367 32146 ft 455 kts 236°
2026-05-05 21:59 27.38068 -127.53877 32150 ft 455 kts 236°
2026-05-05 22:00 27.34038 -127.59396 32168 ft 456 kts 236°
2026-05-05 22:00 27.29999 -127.64919 32175 ft 457 kts 236°
2026-05-05 22:01 27.25945 -127.70457 32172 ft 458 kts 236°
2026-05-05 22:01 27.21901 -127.75972 32162 ft 459 kts 236°
2026-05-05 22:02 27.17831 -127.81516 32169 ft 460 kts 236°
2026-05-05 22:02 27.13749 -127.87069 32166 ft 461 kts 236°
2026-05-05 22:03 27.09659 -127.92627 32169 ft 461 kts 236°
2026-05-05 22:03 27.05592 -127.98146 32154 ft 461 kts 236°
2026-05-05 22:04 27.01492 -128.03702 32165 ft 462 kts 236°
2026-05-05 22:04 26.97393 -128.09251 32170 ft 462 kts 236°
2026-05-05 22:05 26.93289 -128.14799 32173 ft 463 kts 235°
2026-05-05 22:05 26.89171 -128.20362 32161 ft 464 kts 235°
2026-05-05 22:06 26.85071 -128.25891 32176 ft 465 kts 235°
2026-05-05 22:06 26.80924 -128.31477 32175 ft 466 kts 235°
2026-05-05 22:07 26.76782 -128.37048 32173 ft 467 kts 235°
2026-05-05 22:07 26.72617 -128.42643 32172 ft 468 kts 235°
2026-05-05 22:08 26.68449 -128.48235 32174 ft 467 kts 235°
2026-05-05 22:08 26.64281 -128.53820 32170 ft 467 kts 235°
2026-05-05 22:09 26.60120 -128.59389 32170 ft 466 kts 235°
2026-05-05 22:09 26.55990 -128.64910 32172 ft 466 kts 235°
2026-05-05 22:10 26.51833 -128.70460 32172 ft 465 kts 235°
2026-05-05 22:10 26.47664 -128.76021 32178 ft 466 kts 235°
2026-05-05 22:11 26.43491 -128.81578 32180 ft 467 kts 235°
2026-05-05 22:11 26.39305 -128.87147 32178 ft 468 kts 235°
2026-05-05 22:12 26.35142 -128.92678 32169 ft 469 kts 234°
2026-05-05 22:12 26.30940 -128.98252 32179 ft 470 kts 234°
2026-05-05 22:13 26.26733 -129.03828 32173 ft 470 kts 234°
2026-05-05 22:13 26.22524 -129.09399 32177 ft 470 kts 234°
2026-05-05 22:14 26.18301 -129.14982 32165 ft 470 kts 234°
2026-05-05 22:14 26.14076 -129.20559 32181 ft 471 kts 234°
2026-05-05 22:15 26.09853 -129.26128 32182 ft 470 kts 234°
2026-05-05 22:15 26.05633 -129.31686 32181 ft 470 kts 234°
2026-05-05 22:16 26.01436 -129.37208 32173 ft 470 kts 234°
2026-05-05 22:16 25.97205 -129.42767 32181 ft 471 kts 234°
2026-05-05 22:17 25.92969 -129.48326 32178 ft 471 kts 234°
2026-05-05 22:17 25.88745 -129.53862 32178 ft 471 kts 234°
2026-05-05 22:18 25.84488 -129.59435 32164 ft 472 kts 234°
2026-05-05 22:18 25.80235 -129.64995 32180 ft 472 kts 234°
2026-05-05 22:19 25.75984 -129.70547 32180 ft 472 kts 234°
2026-05-05 22:19 25.71753 -129.76066 32162 ft 472 kts 233°
2026-05-05 22:20 25.67497 -129.81610 32168 ft 472 kts 233°
2026-05-05 22:20 25.63230 -129.87162 32176 ft 472 kts 233°
2026-05-05 22:21 25.59687 -129.91768 32181 ft 472 kts 233°
2026-05-05 22:21 25.55426 -129.97300 32180 ft 473 kts 233°
2026-05-05 22:22 25.51150 -130.02845 32179 ft 473 kts 233°
2026-05-05 22:22 25.46176 -130.09286 32185 ft 473 kts 233°
2026-05-05 22:23 25.42621 -130.13886 32180 ft 473 kts 233°
2026-05-05 22:23 25.38332 -130.19427 32184 ft 474 kts 233°
2026-05-05 22:24 25.34038 -130.24969 32177 ft 474 kts 233°
2026-05-05 22:24 25.29738 -130.30512 32159 ft 474 kts 233°
2026-05-05 22:25 25.25446 -130.36038 32176 ft 474 kts 233°
2026-05-05 22:25 25.21175 -130.41531 32181 ft 474 kts 233°
2026-05-05 22:26 25.16878 -130.47050 32177 ft 474 kts 233°
2026-05-05 22:26 25.12577 -130.52567 32175 ft 474 kts 233°
2026-05-05 22:27 25.08279 -130.58076 32177 ft 474 kts 233°
2026-05-05 22:27 25.03966 -130.63596 32177 ft 474 kts 233°
2026-05-05 22:28 24.99683 -130.69071 32177 ft 474 kts 233°
2026-05-05 22:28 24.95378 -130.74569 32177 ft 474 kts 233°
2026-05-05 22:29 24.91071 -130.80063 32179 ft 474 kts 233°
2026-05-05 22:29 24.86782 -130.85527 32178 ft 473 kts 233°
2026-05-05 22:30 24.82476 -130.91006 32181 ft 473 kts 233°
2026-05-05 22:30 24.78166 -130.96485 32178 ft 472 kts 232°
2026-05-05 22:31 24.73857 -131.01955 32176 ft 472 kts 232°
2026-05-05 22:31 24.69575 -131.07386 32174 ft 472 kts 232°
2026-05-05 22:32 24.65263 -131.12848 32174 ft 473 kts 232°
2026-05-05 22:32 24.60950 -131.18306 32174 ft 472 kts 232°
2026-05-05 22:33 24.56629 -131.23767 32172 ft 473 kts 232°
2026-05-05 22:33 24.52311 -131.29218 32174 ft 473 kts 232°
2026-05-05 22:34 24.48019 -131.34632 32170 ft 472 kts 232°
2026-05-05 22:34 24.43709 -131.40062 32175 ft 471 kts 232°
2026-05-05 22:35 24.39409 -131.45473 32169 ft 470 kts 232°
2026-05-05 22:35 24.35115 -131.50878 32176 ft 469 kts 232°
2026-05-05 22:36 24.30832 -131.56267 32166 ft 468 kts 232°
2026-05-05 22:36 24.26559 -131.61637 32173 ft 468 kts 232°
2026-05-05 22:37 24.22273 -131.67016 32172 ft 467 kts 232°
2026-05-05 22:37 24.17989 -131.72388 32170 ft 468 kts 232°
2026-05-05 22:38 24.13701 -131.77758 32165 ft 468 kts 232°
2026-05-05 22:38 24.09433 -131.83097 32169 ft 468 kts 232°
2026-05-05 22:39 24.05145 -131.88456 32168 ft 468 kts 232°
2026-05-05 22:39 24.00857 -131.93808 32167 ft 467 kts 232°
2026-05-05 22:40 23.96573 -131.99150 32162 ft 466 kts 232°
2026-05-05 22:40 23.92300 -132.04471 32170 ft 466 kts 232°
2026-05-05 22:41 23.88049 -132.09760 32167 ft 465 kts 232°
2026-05-05 22:41 23.83779 -132.15067 32168 ft 465 kts 232°
2026-05-05 22:42 23.79508 -132.20370 32165 ft 465 kts 232°
2026-05-05 22:42 23.75235 -132.25669 32161 ft 465 kts 232°
2026-05-05 22:43 23.70957 -132.30969 32175 ft 465 kts 232°
2026-05-05 22:43 23.66671 -132.36272 32160 ft 465 kts 232°
2026-05-05 22:44 23.62387 -132.41568 32152 ft 465 kts 232°
2026-05-05 22:44 23.58116 -132.46841 32166 ft 466 kts 232°
2026-05-05 22:45 23.53826 -132.52133 32166 ft 466 kts 232°
2026-05-05 22:45 23.49528 -132.57428 32155 ft 466 kts 232°
2026-05-05 22:46 23.45251 -132.62693 32150 ft 466 kts 232°
2026-05-05 22:46 23.40951 -132.67980 32165 ft 466 kts 232°
2026-05-05 22:47 23.36655 -132.73257 32154 ft 466 kts 232°
2026-05-05 22:47 23.32352 -132.78536 32163 ft 466 kts 232°
2026-05-05 22:48 23.28054 -132.83804 32158 ft 466 kts 232°
2026-05-05 22:48 23.23776 -132.89042 32157 ft 465 kts 232°
2026-05-05 22:49 23.19480 -132.94295 32152 ft 465 kts 232°
2026-05-05 22:49 23.15184 -132.99545 32153 ft 464 kts 232°
2026-05-05 22:50 23.10889 -133.04787 32148 ft 464 kts 232°
2026-05-05 22:50 23.06588 -133.10030 32152 ft 464 kts 232°
2026-05-05 22:51 23.02314 -133.15236 32156 ft 464 kts 232°
2026-05-05 22:51 22.98008 -133.20475 32156 ft 465 kts 232°
2026-05-05 22:52 22.93694 -133.25719 32151 ft 465 kts 232°
2026-05-05 22:52 22.89378 -133.30959 32155 ft 465 kts 232°
2026-05-05 22:53 22.85096 -133.36153 32150 ft 465 kts 232°
2026-05-05 22:53 22.80773 -133.41391 32157 ft 465 kts 232°
2026-05-05 22:54 22.76449 -133.46625 32153 ft 465 kts 232°
2026-05-05 22:54 22.72129 -133.51849 32153 ft 465 kts 231°
2026-05-05 22:55 22.67806 -133.57071 32152 ft 465 kts 231°
2026-05-05 22:55 22.63500 -133.62266 32155 ft 465 kts 231°
2026-05-05 22:56 22.59170 -133.67487 32146 ft 465 kts 231°
2026-05-05 22:56 22.54839 -133.72702 32148 ft 465 kts 231°
2026-05-05 22:57 22.50504 -133.77917 32149 ft 466 kts 231°
2026-05-05 22:57 22.46198 -133.83092 32131 ft 466 kts 231°
2026-05-05 22:58 22.41858 -133.88303 32140 ft 465 kts 231°
2026-05-05 22:58 22.37521 -133.93504 32147 ft 466 kts 231°
2026-05-05 22:59 22.33181 -133.98705 32141 ft 466 kts 231°
2026-05-05 22:59 22.28836 -134.03907 32137 ft 466 kts 231°
2026-05-05 23:00 22.22343 -134.11668 32141 ft 466 kts 231°
2026-05-05 23:00 22.17996 -134.16859 32145 ft 466 kts 231°
2026-05-05 23:01 22.13640 -134.22054 32138 ft 466 kts 231°
2026-05-05 23:01 22.09281 -134.27249 32136 ft 466 kts 231°
2026-05-05 23:02 22.04947 -134.32408 32133 ft 466 kts 231°
2026-05-05 23:02 22.00577 -134.37605 32129 ft 466 kts 231°
2026-05-05 23:03 21.96220 -134.42782 32136 ft 466 kts 231°
2026-05-05 23:03 21.91856 -134.47962 32141 ft 467 kts 231°
2026-05-05 23:04 21.87488 -134.53142 32135 ft 467 kts 231°
2026-05-05 23:04 21.83119 -134.58317 32131 ft 467 kts 231°
2026-05-05 23:05 21.78773 -134.63460 32130 ft 467 kts 231°
2026-05-05 23:05 21.74394 -134.68637 32130 ft 467 kts 231°
2026-05-05 23:06 21.70013 -134.73812 32128 ft 467 kts 231°
2026-05-05 23:06 21.65639 -134.78973 32123 ft 467 kts 231°
2026-05-05 23:07 21.61287 -134.84104 32131 ft 467 kts 231°
2026-05-05 23:07 21.56909 -134.89260 32128 ft 467 kts 231°
2026-05-05 23:08 21.52532 -134.94410 32124 ft 467 kts 231°
2026-05-05 23:08 21.48149 -134.99561 32128 ft 467 kts 231°
2026-05-05 23:09 21.44505 -135.03841 32123 ft 467 kts 231°
2026-05-05 23:09 21.39407 -135.09822 32108 ft 467 kts 231°
2026-05-05 23:10 21.35021 -135.14962 32116 ft 467 kts 231°
2026-05-05 23:10 21.31369 -135.19240 32133 ft 466 kts 231°
2026-05-05 23:11 21.26982 -135.24372 32127 ft 467 kts 231°
2026-05-05 23:11 21.22589 -135.29508 32103 ft 467 kts 231°
2026-05-05 23:12 21.18198 -135.34635 32118 ft 467 kts 231°
2026-05-05 23:12 21.13806 -135.39759 32125 ft 467 kts 231°
2026-05-05 23:13 21.09412 -135.44881 32117 ft 467 kts 231°
2026-05-05 23:13 21.05039 -135.49973 32114 ft 467 kts 231°
2026-05-05 23:14 21.00639 -135.55092 32120 ft 467 kts 231°
2026-05-05 23:14 20.96236 -135.60210 32117 ft 467 kts 231°
2026-05-05 23:15 20.91836 -135.65319 32120 ft 467 kts 231°
2026-05-05 23:15 20.87430 -135.70431 32104 ft 467 kts 231°
2026-05-05 23:16 20.83025 -135.75536 32120 ft 467 kts 231°
2026-05-05 23:16 20.78613 -135.80645 32110 ft 467 kts 231°
2026-05-05 23:17 20.74236 -135.85710 32119 ft 467 kts 231°
2026-05-05 23:17 20.69821 -135.90813 32113 ft 467 kts 231°
2026-05-05 23:18 20.65410 -135.95906 32113 ft 467 kts 231°
2026-05-05 23:18 20.60990 -136.01006 32100 ft 467 kts 231°
2026-05-05 23:19 20.56575 -136.06095 32108 ft 467 kts 231°
2026-05-05 23:19 20.52176 -136.11161 32096 ft 467 kts 231°
2026-05-05 23:20 20.47761 -136.16240 32107 ft 467 kts 231°
2026-05-05 23:20 20.43337 -136.21326 32106 ft 467 kts 231°
2026-05-05 23:21 20.38911 -136.26409 32103 ft 467 kts 231°
2026-05-05 23:21 20.34484 -136.31489 32093 ft 467 kts 231°
2026-05-05 23:22 20.30083 -136.36535 32100 ft 467 kts 231°
2026-05-05 23:22 20.25650 -136.41612 32101 ft 467 kts 231°
2026-05-05 23:23 20.21227 -136.46673 32097 ft 467 kts 231°
2026-05-05 23:23 20.16817 -136.51715 32089 ft 467 kts 231°
2026-05-05 23:24 20.12390 -136.56772 32099 ft 467 kts 231°
2026-05-05 23:24 20.07959 -136.61829 32095 ft 467 kts 231°
2026-05-05 23:25 20.03526 -136.66884 32097 ft 467 kts 231°
2026-05-05 23:25 19.99124 -136.71899 32088 ft 467 kts 231°
2026-05-05 23:26 19.94692 -136.76944 32095 ft 466 kts 231°
2026-05-05 23:26 19.90261 -136.81983 32095 ft 466 kts 231°
2026-05-05 23:27 19.85829 -136.87019 32092 ft 466 kts 231°
2026-05-05 23:27 19.81391 -136.92057 32076 ft 466 kts 231°
2026-05-05 23:28 19.76991 -136.97047 32092 ft 465 kts 231°
2026-05-05 23:28 19.72561 -137.02068 32086 ft 465 kts 231°
2026-05-05 23:29 19.68127 -137.07090 32095 ft 465 kts 231°
2026-05-05 23:29 19.63699 -137.12099 32088 ft 465 kts 231°
2026-05-05 23:30 19.59270 -137.17105 32088 ft 465 kts 231°
2026-05-05 23:30 19.54869 -137.22076 32090 ft 465 kts 231°
2026-05-05 23:31 19.50431 -137.27084 32087 ft 465 kts 231°
2026-05-05 23:31 19.46002 -137.32077 32088 ft 465 kts 231°
2026-05-05 23:32 19.41562 -137.37079 32081 ft 465 kts 231°
2026-05-05 23:32 19.37163 -137.42030 32087 ft 465 kts 231°
2026-05-05 23:33 19.32730 -137.47014 32084 ft 464 kts 231°
2026-05-05 23:33 19.28295 -137.51998 32084 ft 464 kts 231°
2026-05-05 23:34 19.23864 -137.56972 32085 ft 464 kts 231°
2026-05-05 23:34 19.19433 -137.61943 32082 ft 464 kts 231°
2026-05-05 23:35 19.14999 -137.66912 32084 ft 464 kts 231°
2026-05-05 23:35 19.10560 -137.71885 32085 ft 465 kts 231°
2026-05-05 23:36 19.06144 -137.76826 32065 ft 465 kts 231°
2026-05-05 23:36 19.01703 -137.81790 32082 ft 464 kts 231°
2026-05-05 23:37 18.97259 -137.86754 32078 ft 464 kts 231°
2026-05-05 23:37 18.92816 -137.91714 32080 ft 464 kts 231°
2026-05-05 23:38 18.88398 -137.96642 32079 ft 464 kts 231°
2026-05-05 23:38 18.83958 -138.01591 32078 ft 464 kts 231°
2026-05-05 23:39 18.79517 -138.06535 32079 ft 464 kts 231°
2026-05-05 23:39 18.75066 -138.11472 32079 ft 464 kts 231°
2026-05-05 23:40 18.70607 -138.16410 32076 ft 464 kts 231°
2026-05-05 23:40 18.66180 -138.21312 32067 ft 464 kts 231°
2026-05-05 23:41 18.61729 -138.26238 32070 ft 464 kts 231°
2026-05-05 23:41 18.57267 -138.31173 32083 ft 464 kts 231°
2026-05-05 23:42 18.52816 -138.36092 32067 ft 464 kts 231°
2026-05-05 23:42 18.48359 -138.41013 32069 ft 464 kts 231°
2026-05-05 23:43 18.43934 -138.45896 32072 ft 463 kts 231°
2026-05-05 23:43 18.39481 -138.50805 32071 ft 463 kts 231°
2026-05-05 23:44 18.35026 -138.55711 32068 ft 463 kts 231°
2026-05-05 23:44 18.30571 -138.60615 32069 ft 463 kts 231°
2026-05-05 23:45 18.26112 -138.65519 32059 ft 463 kts 231°
2026-05-05 23:45 18.21657 -138.70415 32075 ft 462 kts 231°
2026-05-05 23:46 18.17238 -138.75267 32070 ft 462 kts 231°
2026-05-05 23:46 18.12785 -138.80153 32065 ft 462 kts 231°
2026-05-05 23:47 18.08328 -138.85039 32057 ft 462 kts 231°
2026-05-05 23:47 18.03877 -138.89915 32060 ft 462 kts 231°
2026-05-05 23:48 17.99429 -138.94785 32059 ft 462 kts 231°
2026-05-05 23:48 17.95005 -138.99623 32064 ft 462 kts 231°
2026-05-05 23:49 17.90554 -139.04488 32063 ft 462 kts 231°
2026-05-05 23:49 17.86102 -139.09351 32053 ft 462 kts 231°
2026-05-05 23:50 17.81643 -139.14216 32063 ft 462 kts 231°
2026-05-05 23:50 17.77205 -139.19054 32064 ft 462 kts 231°
2026-05-05 23:51 17.72739 -139.23921 32059 ft 462 kts 231°
2026-05-05 23:51 17.68271 -139.28785 32061 ft 462 kts 231°
2026-05-05 23:52 17.63804 -139.33645 32056 ft 462 kts 231°
2026-05-05 23:52 17.59332 -139.38506 32062 ft 462 kts 231°
2026-05-05 23:53 17.54894 -139.43327 32059 ft 463 kts 231°
2026-05-05 23:53 17.50423 -139.48180 32056 ft 463 kts 231°
2026-05-05 23:54 17.45936 -139.53047 32053 ft 463 kts 231°
2026-05-05 23:54 17.41460 -139.57898 32050 ft 463 kts 231°
2026-05-05 23:55 17.36999 -139.62729 32051 ft 463 kts 231°
2026-05-05 23:55 17.32511 -139.67586 32052 ft 463 kts 231°
2026-05-05 23:56 17.28782 -139.71619 32049 ft 463 kts 231°
2026-05-05 23:56 17.23559 -139.77263 32048 ft 463 kts 231°
2026-05-05 23:57 17.19826 -139.81293 32049 ft 463 kts 231°
2026-05-05 23:57 17.15333 -139.86141 32045 ft 463 kts 231°
2026-05-05 23:58 17.10848 -139.90977 32049 ft 463 kts 231°
2026-05-05 23:58 17.06355 -139.95818 32049 ft 463 kts 231°
2026-05-05 23:59 17.01869 -140.00648 32032 ft 463 kts 231°
2026-05-05 23:59 16.97410 -140.05447 32043 ft 463 kts 231°
2026-05-06 00:00 16.92916 -140.10278 32048 ft 464 kts 231°
2026-05-06 00:00 16.88412 -140.15117 32047 ft 465 kts 231°
2026-05-06 00:01 16.83898 -140.19963 32045 ft 465 kts 231°
2026-05-06 00:01 16.79386 -140.24804 32036 ft 465 kts 231°
2026-05-06 00:02 16.74867 -140.29648 32041 ft 466 kts 231°
2026-05-06 00:02 16.70342 -140.34494 32041 ft 466 kts 231°
2026-05-06 00:03 16.65837 -140.39317 32035 ft 466 kts 231°
2026-05-06 00:03 16.61308 -140.44161 32039 ft 466 kts 231°
2026-05-06 00:04 16.56782 -140.48999 32043 ft 465 kts 231°
2026-05-06 00:04 16.52263 -140.53826 32028 ft 466 kts 231°
2026-05-06 00:05 16.45493 -140.61051 32040 ft 466 kts 231°
2026-05-06 00:06 16.40961 -140.65883 32022 ft 466 kts 231°
2026-05-06 00:06 16.36430 -140.70711 32026 ft 466 kts 231°
2026-05-06 00:07 16.31893 -140.75541 32031 ft 466 kts 230°
2026-05-06 00:07 16.27348 -140.80378 32025 ft 467 kts 230°
2026-05-06 00:08 16.22800 -140.85214 32019 ft 467 kts 230°
2026-05-06 00:08 16.18278 -140.90017 32027 ft 468 kts 230°
2026-05-06 00:09 16.13722 -140.94855 32015 ft 468 kts 230°
2026-05-06 00:09 16.09162 -140.99693 32022 ft 468 kts 230°
2026-05-06 00:10 16.04596 -141.04534 32019 ft 469 kts 230°
2026-05-06 00:10 16.00017 -141.09385 32021 ft 469 kts 230°
2026-05-06 00:11 15.95451 -141.14220 32021 ft 469 kts 230°
2026-05-06 00:11 15.90902 -141.19034 32006 ft 469 kts 230°
2026-05-06 00:12 15.86309 -141.23889 32014 ft 470 kts 230°
2026-05-06 00:12 15.81751 -141.28706 32012 ft 470 kts 230°
2026-05-06 00:13 15.77157 -141.33556 32012 ft 471 kts 230°
2026-05-06 00:13 15.72558 -141.38408 32010 ft 471 kts 230°
2026-05-06 00:14 15.67960 -141.43257 31992 ft 471 kts 230°
2026-05-06 00:14 15.63356 -141.48108 32003 ft 471 kts 230°
2026-05-06 00:15 15.58780 -141.52926 32007 ft 472 kts 230°
2026-05-06 00:15 15.54168 -141.57779 32004 ft 472 kts 230°
2026-05-06 00:16 15.49558 -141.62628 32003 ft 472 kts 230°
2026-05-06 00:16 15.44939 -141.67482 31995 ft 472 kts 230°
2026-05-06 00:17 15.40318 -141.72334 31996 ft 473 kts 230°
2026-05-06 00:17 15.35692 -141.77189 31995 ft 473 kts 230°
2026-05-06 00:18 15.31088 -141.82018 31992 ft 474 kts 230°
2026-05-06 00:18 15.26450 -141.86878 31991 ft 474 kts 230°
2026-05-06 00:19 15.21807 -141.91741 31986 ft 474 kts 229°
2026-05-06 00:19 15.17158 -141.96606 31990 ft 475 kts 229°
2026-05-06 00:20 15.12511 -142.01467 31987 ft 475 kts 229°
2026-05-06 00:20 15.07864 -142.06324 31990 ft 475 kts 229°
2026-05-06 00:21 15.03237 -142.11157 31983 ft 475 kts 229°
2026-05-06 00:21 14.98580 -142.16018 31983 ft 475 kts 229°
2026-05-06 00:22 14.93922 -142.20878 31983 ft 475 kts 229°
2026-05-06 00:22 14.89269 -142.25728 31983 ft 475 kts 229°
2026-05-06 00:23 14.84614 -142.30578 31987 ft 474 kts 229°
2026-05-06 00:23 14.79994 -142.35388 31982 ft 474 kts 229°
2026-05-06 00:24 14.75343 -142.40228 31975 ft 474 kts 229°
2026-05-06 00:24 14.70677 -142.45080 31982 ft 475 kts 229°
2026-05-06 00:25 14.66039 -142.49899 31978 ft 476 kts 229°
2026-05-06 00:25 14.61364 -142.54755 31979 ft 476 kts 229°
2026-05-06 00:26 14.56689 -142.59607 31978 ft 476 kts 229°
2026-05-06 00:26 14.52007 -142.64463 31968 ft 477 kts 229°
2026-05-06 00:27 14.47326 -142.69314 31973 ft 477 kts 229°
2026-05-06 00:27 14.42641 -142.74166 31971 ft 478 kts 229°
2026-05-06 00:28 14.37946 -142.79027 31973 ft 478 kts 229°
2026-05-06 00:28 14.33248 -142.83887 31970 ft 478 kts 229°
2026-05-06 00:29 14.28581 -142.88712 31959 ft 478 kts 228°
2026-05-06 00:29 14.23883 -142.93567 31966 ft 478 kts 228°
2026-05-06 00:30 14.19182 -142.98421 31958 ft 478 kts 228°
2026-05-06 00:30 14.14478 -143.03275 31965 ft 478 kts 228°
2026-05-06 00:31 14.09769 -143.08132 31958 ft 478 kts 228°
2026-05-06 00:31 14.05058 -143.12988 31949 ft 479 kts 228°
2026-05-06 00:32 14.00372 -143.17815 31959 ft 479 kts 228°
2026-05-06 00:32 13.95647 -143.22678 31956 ft 479 kts 228°
2026-05-06 00:33 13.90924 -143.27537 31954 ft 480 kts 228°
2026-05-06 00:33 13.86227 -143.32366 31953 ft 480 kts 228°
2026-05-06 00:34 13.81495 -143.37229 31942 ft 480 kts 228°
2026-05-06 00:34 13.76768 -143.42083 31948 ft 480 kts 228°
2026-05-06 00:35 13.72038 -143.46937 31944 ft 480 kts 228°
2026-05-06 00:35 13.67304 -143.51792 31946 ft 480 kts 228°
2026-05-06 00:36 13.62600 -143.56614 31944 ft 481 kts 228°
2026-05-06 00:36 13.57859 -143.61471 31942 ft 481 kts 228°
2026-05-06 00:37 13.53114 -143.66329 31939 ft 481 kts 228°
2026-05-06 00:37 13.48367 -143.71187 31944 ft 481 kts 228°
2026-05-06 00:38 13.43647 -143.76013 31940 ft 482 kts 227°
2026-05-06 00:38 13.38880 -143.80885 31937 ft 482 kts 227°
2026-05-06 00:39 13.34119 -143.85748 31937 ft 482 kts 227°
2026-05-06 00:39 13.29361 -143.90605 31935 ft 482 kts 227°
2026-05-06 00:40 13.24633 -143.95429 31935 ft 482 kts 227°